CYUL

Montreal/Pierre Elliott Trudeau International Airport

Airport
ICAO code
CYUL
IATA Code
YUL
Summary
ICAO Region
NAM
ICAO Territory
Location

Dorval, Quebec,

Serving
Montreal
Elevation
118 ft
Coordinates
45° 28' 6" N , 73° 44' 31" W
KCC
Airport LOS
Parallel Runway Operation
Metar
Observation
CYUL 011300Z VRB02KT 15SM OVC250 10/08 A3019 RMK CS8 SLP225
Station
Montreal / Pierre Elliot Trudeau International Airport, Que
Date/Time
2022-10-01 13:00:00
Wind speed
02 kts
Lowest cloud amount
overcast
Temperature
10°C
Dew point
8°C
Humidity
87%
Weather condition
n/a

Description

Montréal-Pierre Elliott Trudeau International Airport, formerly known as Montréal-Dorval International Airport, is located in the city of Dorval, on the Island of Montreal, 20 km from Montreal's downtown core. It is the international airport serving Greater Montreal, along with the regions of northern Vermont and New York.

Climatology

Humid Continental climate (Köppen climate classification Dfb) - The humid continental climate is marked by variable weather patterns and a large seasonal temperature variance. Summers are often warm and humid with frequent thunderstorms and winters can be very cold with frequent snowfall and persistent snow cover.

Runways

Designator Length Width Surface Rops
10/28 2134 61 ASP Yes/Yes
06R/24L 2926 61 ASP Yes/Yes
06L/24R 3353 61 ASP Yes/Yes

SKYbrary Partners:

Safety knowledge contributed by: